Beaufort, NC

11:40 AM EDT on April 20, 2018 (GMT -0400)
Smith

Weather History for KMRH - October, 2013

Change the Weather History Date:

Friday, October 25, 2013

  Actual Average Record
Temperature  
Mean Temperature 52 °F -  
Max Temperature 60 °F 74 °F 84 °F (1991)
Min Temperature 39 °F 55 °F 39 °F (2006)
Degree Days  
Heating Degree Days 13    
Growing Degree Days 2 (Base 50)    
Moisture  
Dew Point 35 °F    
Average Humidity 58    
Maximum Humidity 90    
Minimum Humidity 33    
Precipitation  
Precipitation 0.00 in - - ()
Sea Level Pressure  
Sea Level Pressure 30.26 in    
Wind  
Wind Speed 7 mph (North)    
Max Wind Speed 15 mph    
Max Gust Speed 22 mph    
Visibility 10 miles    
Events      
Averages and records for this station are not official NWS values.
T = Trace of Precipitation, MM = Missing Value Source: NWS Daily Summary

Daily Weather History Graph

Daily Weather History Graph

Search for Another Location

Airport or City:

Astronomy

Oct. 25, 2013 Rise Set
Actual Time 7:21 AM EDT 6:19 PM EDT
Civil Twilight 6:55 AM EDT 6:45 PM EDT
Nautical Twilight 6:25 AM EDT 7:15 PM EDT
Astronomical Twilight 5:56 AM EDT 7:44 PM EDT
Moon 11:40 PM EDT (10/25) 12:56 PM EDT (10/25)
Length of Visible Light 11h 50m
Length of Day
10h 58m
Waning Gibbous, 62% of the Moon is Illuminated
Oct 25
Waning Gibbous
Oct 26
Last Quarter
Nov 3
New
Nov 10
First Quarter
Nov 17
Full

Hourly Weather History & Observations

Time (EDT) Temp. Windchill Dew Point Humidity Pressure Visibility Wind Dir Wind Speed Gust Speed Precip Events Conditions
12:58 AM 45.0 °F - 42.1 °F 90% 30.17 in 10.0 mi Calm Calm - N/A   Clear
1:58 AM 48.0 °F - 42.1 °F 80% 30.17 in 10.0 mi NNE 4.6 mph - N/A   Clear
2:58 AM 48.9 °F - 42.1 °F 77% 30.17 in 10.0 mi NNE 6.9 mph - N/A   Overcast
3:58 AM 50.0 °F - 39.9 °F 68% 30.17 in 10.0 mi NNE 10.4 mph - N/A   Overcast
4:58 AM 48.9 °F - 39.9 °F 71% 30.19 in 10.0 mi North 9.2 mph - N/A   Overcast
5:58 AM 50.0 °F - 39.0 °F 66% 30.21 in 10.0 mi North 9.2 mph - N/A   Overcast
6:58 AM 48.9 °F - 37.0 °F 64% 30.22 in 10.0 mi North 10.4 mph - N/A   Overcast
7:58 AM 48.0 °F - 36.0 °F 63% 30.24 in 10.0 mi North 13.8 mph 19.6 mph N/A   Overcast
8:58 AM 48.9 °F - 34.0 °F 56% 30.27 in 10.0 mi North 11.5 mph - N/A   Overcast
9:58 AM 50.0 °F - 34.0 °F 54% 30.27 in 10.0 mi North 11.5 mph - N/A   Overcast
10:58 AM 51.1 °F - 35.1 °F 54% 30.27 in 10.0 mi North 10.4 mph - N/A   Overcast
11:58 AM 54.0 °F - 37.0 °F 53% 30.27 in 10.0 mi North 11.5 mph - N/A   Mostly Cloudy
12:58 PM 55.9 °F - 34.0 °F 44% 30.26 in 10.0 mi North 10.4 mph 19.6 mph N/A   Clear
1:58 PM 57.9 °F - 30.9 °F 36% 30.25 in 10.0 mi North 15.0 mph - N/A   Clear
2:58 PM 59.0 °F - 32.0 °F 36% 30.25 in 10.0 mi NNW 13.8 mph 20.7 mph N/A   Clear
3:58 PM 57.9 °F - 28.9 °F 33% 30.25 in 10.0 mi North 10.4 mph 21.9 mph N/A   Clear
4:58 PM 57.0 °F - 28.9 °F 34% 30.27 in 10.0 mi North 9.2 mph - N/A   Clear
5:58 PM 54.0 °F - 30.0 °F 40% 30.28 in 10.0 mi North 6.9 mph - N/A   Clear
6:58 PM 48.0 °F - 35.1 °F 61% 30.30 in 10.0 mi North 6.9 mph - N/A   Clear
7:58 PM 46.9 °F - 33.1 °F 59% 30.31 in 10.0 mi North 8.1 mph - N/A   Clear
8:58 PM 48.0 °F - 33.1 °F 56% 30.33 in 10.0 mi North 6.9 mph - N/A   Clear
9:58 PM 46.0 °F 43.9 °F 33.1 °F 61% 30.34 in 10.0 mi NNE 4.6 mph - N/A   Clear
10:58 PM 46.0 °F 44.8 °F 33.1 °F 61% 30.34 in 10.0 mi NNE 3.5 mph - N/A   Clear
11:58 PM 39.9 °F - 33.1 °F 77% 30.35 in 10.0 mi Calm Calm - N/A   Clear